Regional Weather Roundup
Issued by NWS Newport/Morehead, NC

Current Version | Previous Version | Graphics & Text | Print | Product List | Glossary Off
Versions: 1 2 3 4 5 6 7 8 9 10 11 12 13 14 15 16 17 18 19 20 21 22 23 24 25 26 27 28 29 30 31 32 33 34 35 36 37 38 39 40 41 42 43 44 45 46 47 48 49 50

000
ASUS42 KMHX 280922
RWRMHX
WEATHER ROUNDUP FOR EASTERN NORTH CAROLINA
NATIONAL WEATHER SERVICE NEWPORT/MOREHEAD CITY NC
400 AM EST SUN DEC 28 2014

NOTE: "FAIR" INDICATES FEW OR NO CLOUDS BELOW 12,000 FEET
WITH NO SIGNIFICANT WEATHER AND/OR OBSTRUCTIONS TO VISIBILITY

NCZ015>017-031-032-045>047-102-103-281000-
NORTH COAST

CITY           SKY/WX    TMP DP  RH WIND       PRES   REMARKS
EDENTON        MOCLDY    49  44  84 SW6       30.11F
ELIZABETH CITY MOCLDY    52  44  74 SW8       30.12F
KITTY HAWK     MOSUNNY   49  45  84 SW5       30.11F
MANTEO         PTCLDY    48  45  87 SW3       30.13F

$$

NCZ045>047-081-094-103-104-281000-
CENTRAL COAST

CITY           SKY/WX    TMP DP  RH WIND       PRES   REMARKS
FRISCO         CLEAR     54  49  83 W6        30.14F
SWANQUARTER      N/A     52 N/A N/A W1        30.09F

$$

NCZ095-097-098-100-101-281000-
SOUTHERN COAST

CITY           SKY/WX    TMP DP  RH WIND       PRES   REMARKS
BEAUFORT       MOCLDY    49  49 100 CALM      30.14F
CEDAR ISLAND     N/A     55 N/A N/A SW3       30.18S
JACKSONVILLE   MOCLDY    48  45  89 CALM      30.13F
PINEY ISLAND   PTSUNNY   52  49  89 SW3       30.14F
WILMINGTON     CLOUDY    50  48  93 CALM      30.13F


$$

NCZ011>013-027>030-043-044-078>080-089-090>093-098-281000-
COASTAL PLAIN

CITY           SKY/WX    TMP DP  RH WIND       PRES   REMARKS
AHOSKIE        CLOUDY    49  43  79 SW3       30.11F
CLINTON        CLOUDY    50  46  86 CALM      30.13F
ELIZABETHTOWN  CLOUDY    50  46  86 CALM      30.13F
GOLDSBORO      CLOUDY    51  50  98 S2        30.11F
GREENVILLE     CLOUDY    50  43  76 SW3       30.14F
HAVELOCK       MOCLDY    48  44  86 CALM      30.15F
KENANSVILLE    MOCLDY    46  44  92 CALM      30.13F
KINSTON        CLOUDY    49  44  83 S3        30.14F
NEW BERN       MOCLDY    50  46  86 CALM      30.15F
RICHLANDS      MOCLDY    46  43  87 CALM      30.13F
ROCKY MOUNT    CLOUDY    49  43  80 S3        30.11F
WASHINGTON     CLOUDY    49  44  82 CALM      30.13F
WHITEVILLE     CLOUDY    51  47  87 CALM      30.12F

$$

AMZ130-135-150-152-154-156-158-170-250-252-270-ANZ085-086-088-633-658-670-281000-
MARINE OBSERVATIONS

STATION/POSITION TIME  TEMP    WIND        PRES    WAVE   SWELL
                       AIR SEA DIR/SP/G            HT/PER HT/PER
                 (UTC) (F)     (DEG/KT/KT) (MB)    (FT/S) (FT/S)
CHESAPEAKE LIGHT 0900   49     220/ 17/ 19 1019.1
64 E VA BEACH    0900   54 53  230/ 12/ 14 1018.8    4/14   3/14
DUCK             0900   52 49  210/ 11/ 14 1018.6
2 E DUCK         0900      48                N/A     3/15   3/15
10 NE DUCK       0900      50                N/A     3/14   2/14
OREGON INLET     0900   52 53  200/  9/ 10 1019.9
13E OREGON INLT  0900      53                N/A     3/14   2/14
HATTERAS CG      0900   56 54  250/  5/  7 1020.9
DIAMOND BUOY     0900   68                 1020.6    4/15
17 S OCRACOKE    NOT AVBL
CAPE LOOKOUT     0900   58     320/  1/  1 1020.5
BEAUFORT LAB     0900   53 55  360/  1/  1 1019.5
30 SE NEW RIVER  0900   62 61   CALM  /  2 1021.2    3/15   3/15
5 SE WRIGHTSVLE  NOT AVBL
225 S CAPE HAT   0818   71 74  190/ 10/ 12 1022.6    5/15   5/15
41 SE CHARLESTON 0900   72 74  200/  6/  8 1020.2    2/16   2/16

$$


USA.gov is the U.S. government's official web portal to all federal, state and local government web resources and services.